Location: El Águila
(10.4167°N, 66.7167°W)
Time: 05:09:41
(UTC+00:00)

NOSS 3-3 (A) - Pass Details

Date: 02 October 2022
Orbit: 777 x 1435 km, 63.4° (Epoch: 16 November)

Event Time Altitude Azimuth Distance (km) Brightness Sun altitude
Rises 23:16:06 0° 201° (SSW) 3,273 7.1 -15.4°
Reaches altitude 10° 23:18:31 10° 199° (SSW) 2,323 6.2 -16.0°
Maximum altitude 23:23:44 78° 114° (ESE) 801 3.4 -17.3°
Drops below altitude 10° 23:29:09 10° 28° (NNE) 2,406 5.8 -18.7°
Enters shadow 23:30:00 - 27° (NNE) 2,737 6.1 -18.9°
